Location: Clarion
(42.7316°N, 93.7330°W)
Time: 01:29:22
(UTC+00:00)

Cosmos 2322 Rocket - Pass Details

Date: 22 April 2026
Orbit: 832 x 850 km, 71.0° (Epoch: 20 May)

Event Time Altitude Azimuth Distance (km) Brightness Sun altitude
Rises 09:32:23 0° 328° (NNW) 3,396 5.4 -18.7°
Reaches altitude 10° 09:34:59 10° 320° (NW) 2,460 4.6 -18.3°
Maximum altitude 09:40:07 38° 255° (WSW) 1,269 2.6 -17.5°
Enters shadow 09:42:54 23° 204° (SSW) 1,706 3.3 -17.1°
